Regional Weather Roundup
Issued by NWS

Home | Current Version | Previous Version | Text Only | Print | Product List | Glossary On
Versions: 1 2 3 4 5 6 7 8 9 10 11 12 13 14 15 16 17 18 19 20 21 22 23 24 25 26 27 28 29 30 31 32 33 34 35 36 37 38 39 40 41 42 43 44 45 46 47 48 49 50
288
ASUS43 KMKX 270720
RWRWI

WISCONSIN REGIONAL WEATHER ROUNDUP
NATIONAL WEATHER SERVICE MILWAUKEE/SULLIVAN WI
200 AM CDT FRI APR 27 2018

NOTE: "FAIR" INDICATES FEW OR NO CLOUDS BELOW 12,000 FEET WITH NO
SIGNIFICANT WEATHER AND/OR OBSTRUCTIONS TO VISIBILITY.

WIZ001-002-006>008-014>016-023>028-270800-
NORTHWEST WISCONSIN

CITY           SKY/WX    TMP DP  RH WIND       PRES   REMARKS
SUPERIOR ARPT  FAIR      29  28  96 CALM      29.84F
ASHLAND        FAIR      29  27  92 CALM      29.86F
HAYWARD        FAIR      29  25  85 CALM      29.85F
SIREN          FAIR      32  23  69 CALM      29.85F
CUMBERLAND     FAIR      34  25  69 CALM      29.85F
RICE LAKE      FAIR      32  29  87 CALM      29.87F
CHETEK         FAIR      32  30  92 CALM      29.87F
LADYSMITH      FAIR      31  29  92 CALM      29.87F
EAU CLAIRE     FAIR      36  31  82 CALM      29.87F
MENOMONIE      FAIR      40  30  68 E5        29.87F
NEW RICHMOND   FAIR      37  25  62 SW3       29.87F
OSCEOLA        FAIR      33  26  76 W3        29.91S
$$

WIZ003>005-009-010-017-018-270800-
NORTH CENTRAL WISCONSIN

CITY           SKY/WX    TMP DP  RH WIND       PRES   REMARKS
MANITOWISH WTR FAIR      26  26 100 CALM      29.84F
ARBOR VITAE    FAIR      29  28  96 CALM      29.84F
WOODRUFF       FAIR      29  28  96 CALM      29.84F
RHINELANDER    FAIR      28  27  96 CALM      29.85F FOG
EAGLE RIVER    MOCLDY    26  26 100 CALM      29.84F FOG
LAND O LAKES   FAIR      24  24  98 CALM      29.85F
PHILLIPS       FAIR      26  26 100 CALM      29.85F
TOMAHAWK       FAIR      24  23  96 CALM      29.86F
MEDFORD        FAIR      31  31  98 CALM      29.86F
MERRILL        FAIR      29  29 100 CALM      29.87S
$$

WIZ029-030-035-036-043>047-270800-
CENTRAL WISCONSIN

CITY           SKY/WX    TMP DP  RH WIND       PRES   REMARKS
WAUSAU         FAIR      36  33  89 NW3       29.85S
MOSINEE        FAIR      36  32  87 N6        29.87F WCI  31
MARSHFIELD     FAIR      38  33  82 NE5       29.85F WCI  34
STEVENS POINT  FAIR      35  32  88 N3        29.86F
WAUPACA        FAIR      42  34  74 N3        29.86S
WAUTOMA        FAIR      42  33  70 N3        29.86F
WISC RAPIDS    FAIR      38  30  73 N3        29.87F
CAMP DOUGLAS   FAIR      33  30  86 NW5       29.87F WCI  29
$$

WIZ011>013-019>022-031-037>040-048>050-270800-
NORTHEAST WISCONSIN

CITY           SKY/WX    TMP DP  RH WIND       PRES   REMARKS
ANTIGO         FAIR      31  31  99 CALM      29.85F
SHAWANO        FAIR      38  33  83 CALM      29.85F
OCONTO         FAIR      38  34  85 CALM      29.85S
STURGEON BAY   CLOUDY    37  35  92 N9        29.84F WCI  30
GREEN BAY      CLOUDY    40  36  86 N5        29.85S
MANITOWOC      LGT RAIN  41  35  79 N13       29.82S
APPLETON       CLOUDY    41  32  70 N14G20    29.84S
CLINTONVILLE   FAIR      40  32  73 N3        29.85F
OSHKOSH        MOCLDY    43  36  76 N10       29.84S
$$

WIZ032>034-041-042-053>061-270800-
SOUTHWEST WISCONSIN

CITY           SKY/WX    TMP DP  RH WIND       PRES   REMARKS
LA CROSSE      FAIR      48  34  58 N5        29.89S
SPARTA         FAIR      35  32  88 CALM      29.90S
VIROQUA        FAIR      41  34  75 N3        29.88S
BOSCOBEL       FAIR      49  33  54 NE5       29.88S
PRAIRIE DU CHI FAIR      50  32  50 N6        29.88S
PLATTEVILLE    FAIR      49  31  51 N18       29.85S
$$

WIZ056-057-062-063-064-067-068-270800-
SOUTH CENTRAL WISCONSIN

CITY           SKY/WX    TMP DP  RH WIND       PRES   REMARKS
REEDSBURG      FAIR      43  30  59 N7        29.86S
BARABOO/DELLS  FAIR      45  30  56 N6        29.86S
LONE ROCK      FAIR      48  31  51 N3        29.87S
MINERAL POINT  FAIR      46  30  53 N10       29.85S
MADISON        CLOUDY    47  35  63 N9        29.83S
MIDDLETON      FAIR      48  34  58 N9        29.84F
WATERTOWN      CLOUDY    47  37  67 N13       29.81R
MONROE         CLOUDY    50  32  50 N16G25    29.81S
JANESVILLE     CLOUDY    54  39  58 N12       29.79R
$$

WIZ051-052-058>065-066-070>072-270800-
SOUTHEAST WISCONSIN

CITY           SKY/WX    TMP DP  RH WIND       PRES   REMARKS
MILWAUKEE      MOCLDY    44  35  70 N25G37    29.79R
WAUKESHA       CLOUDY    43  32  65 N14G20    29.81R
MILWAUKEE/TIMM MOCLDY    43  32  65 N14       29.80S
RACINE         MOCLDY    41  35  79 N20G35    29.79R
BURLINGTON     FAIR      51  35  54 N16G25    29.77R
KENOSHA        MOCLDY    50  32  50 NW7       29.74S
FOND DU LAC    MOCLDY    44  36  73 N12       29.83S
SHEBOYGAN      LGT RAIN  42  38  85 N12       29.80S
WEST BEND      LGT RAIN  45  34  65 N6        29.80S
JUNEAU         CLOUDY    44  36  72 N10       29.83S
$$

LSZ147-162-270800-
LAKE SUPERIOR

STATION/POSITION TIME  TEMP    WIND        PRES    WAVE
                       AIR SEA DIR/SP/G            HT/PER
                 (UTC) (F)     (DEG/KT/KT) (MB)    (FT/S)
DEVILS ISLAND    0700   40     220/  5/  5 1011.3F
SAXON HARBOR     0640   30     200/  4/  5 1010.8F
$$

LMZ867-665-643>646-270800-
LAKE MICHIGAN

STATION/POSITION TIME  TEMP    WIND        PRES    WAVE
                       AIR SEA DIR/SP/G            HT/PER
                 (UTC) (F)     (DEG/KT/KT) (MB)    (FT/S)
NORTHPORT PIER   0640   36                 1010.5F
KEWAUNEE LAKESHO 0654   40     360/  7/ 12 1009.4F
SHEBOYGAN LAKESH 0700   40      20/ 18/ 19 1009.5F
PORT WASHINGTON  0640   44      10/  9/ 18 1010.2S
MILWAUKEE LAKESH 0700   43     350/ 21/ 25   N/A
KENOSHA   LAKESH 0700   55                 1007.5
$$

TC  - TEMPERATURE IN CELSIUS
VSB - VISIBILITY IN STATUTE MILES
WCI - WIND CHILL INDEX
HX  - HEAT INDEX





USA.gov is the U.S. government's official web portal to all federal, state and local government web resources and services.